Weather History for Tin City, AK

Change the Weather History Date:

Friday, June 7, 2013

  Actual Average Record
Temperature  
Mean Temperature 32 °F -  
Max Temperature 32 °F 40 °F 60 °F (1997)
Min Temperature 31 °F 31 °F 28 °F (1999)
Degree Days  
Heating Degree Days 34    
Moisture  
Dew Point 32 °F    
Average Humidity 100    
Maximum Humidity 100    
Minimum Humidity 100    
Precipitation  
Precipitation 0.00 in - - ()
Sea Level Pressure  
Sea Level Pressure 29.98 in    
Wind  
Wind Speed 19 mph (SSW)    
Max Wind Speed 88 mph    
Max Gust Speed 112 mph    
Visibility 1 miles    
Events Fog , Rain    
Averages and records for this station are not official NWS values.
T = Trace of Precipitation, MM = Missing Value Source: NWS Daily Summary

Daily Weather History Graph

Daily Weather History Graph

Search for Another Location

Airport:

Trip Planner

Search our weather history database for the weather conditions in past years. The results will help you decide how hot, cold, wet, or windy it might be!

Date:

Astronomy

Jun. 07, 2013 Rise Set
Actual Time 4:13 AM AKDT 2:11 AM AKDT
Civil Twilight Sun does not rise Sun does not rise
Nautical Twilight Sun does not rise Sun does not rise
Astronomical Twilight Sun does not rise Sun does not rise
Moon 4:56 AM AKDT (6/7) No Moon Set
Length of Visible Light 24h 00m
Length of Day
21h 58m
Waning Crescent, 1% of the Moon is Illuminated
Jun 7
Waning Crescent
Jun 8
New
Jun 16
First Quarter
Jun 23
Full
Jun 29
Last Quarter

Hourly Weather History & Observations

Time (AKDT) Temp. Windchill Dew Point Humidity Pressure Visibility Wind Dir Wind Speed Gust Speed Precip Events Conditions
12:55 AM - - - N/A% 29.91 in 0.2 mi North - - N/A Fog , Rain Light Rain
1:55 AM - - - N/A% 29.91 in 0.2 mi North - - N/A Fog , Rain Light Rain
2:55 AM 31.1 °F - 31.8 °F 100% 29.92 in 0.2 mi North - - N/A Fog , Rain Light Freezing Rain
3:55 AM 31.3 °F - 32.2 °F 100% 29.92 in 0.2 mi North - - N/A Fog , Rain Light Freezing Rain
4:55 AM 31.3 °F - 32.0 °F 100% 29.92 in 0.2 mi North - - N/A Fog , Rain Light Freezing Rain
5:55 AM 31.3 °F - 32.2 °F 100% 29.92 in 0.2 mi North - - N/A Fog , Rain Light Freezing Rain
6:45 AM 32.0 °F - 32.0 °F 100% 29.93 in 0.2 mi North - - N/A Fog , Rain Light Rain
6:55 AM 31.3 °F - 32.2 °F 100% 29.93 in 0.2 mi North - - N/A Fog , Rain Light Freezing Rain
7:05 AM 32.0 °F - 32.0 °F 100% 29.93 in 0.2 mi North - - N/A Fog , Rain Light Rain
7:55 AM 32.0 °F 23.0 °F 32.0 °F 100% 29.94 in 0.2 mi NNW 11.5 mph - N/A Fog , Rain Light Rain
8:23 AM 32.0 °F 10.5 °F 32.0 °F 100% 29.94 in 0.2 mi SE 87.5 mph - N/A Fog , Rain Light Rain
8:54 AM 32.0 °F 23.0 °F 32.0 °F 100% 29.94 in 0.2 mi North 11.5 mph - N/A Fog , Rain Light Rain
9:50 AM 32.0 °F 18.9 °F 32.0 °F 100% 29.94 in 0.2 mi South 24.2 mph 74.8 mph N/A Fog , Rain Light Rain
9:55 AM 31.5 °F 20.1 °F 32.4 °F 100% 29.95 in 0.2 mi South 17.3 mph 74.8 mph N/A Fog , Rain Light Freezing Rain
10:05 AM 32.0 °F 19.2 °F 32.0 °F 100% 29.95 in 0.2 mi South 23.0 mph 26.5 mph N/A Fog , Rain Light Rain
10:55 AM 31.6 °F 22.1 °F 32.4 °F 100% 29.96 in 0.2 mi South 12.7 mph 111.6 mph N/A Fog , Rain Light Freezing Rain
11:55 AM 31.8 °F 22.3 °F 32.7 °F 100% 29.97 in 0.2 mi South 12.7 mph - N/A Fog , Rain Light Freezing Rain
12:45 PM - - - N/A% 29.98 in 0.2 mi SSW 12.7 mph - N/A Fog Fog
12:55 PM - - - N/A% 29.99 in 0.8 mi SSW 11.5 mph - N/A Fog Fog
1:05 PM - - - N/A% 29.99 in 10.0 mi SSW 9.2 mph - N/A   Mostly Cloudy
1:25 PM - - - N/A% 30.00 in 10.0 mi SSW 8.1 mph - N/A   Mostly Cloudy
1:45 PM - - - N/A% 29.99 in 10.0 mi SSW 12.7 mph - N/A   Mostly Cloudy
1:55 PM - - - N/A% 30.00 in 10.0 mi SSW 11.5 mph - N/A   Mostly Cloudy
2:45 PM - - - N/A% 30.01 in 1.5 mi SSW 13.8 mph - N/A   Mist
2:55 PM - - - N/A% 30.01 in 0.8 mi SSW 11.5 mph - N/A   Mostly Cloudy
3:05 PM - - - N/A% 30.01 in 0.2 mi SSW 12.7 mph - N/A Fog Fog
3:55 PM - - - N/A% 30.02 in 0.2 mi South 13.8 mph - N/A Fog Fog
4:45 PM 32.0 °F 23.0 °F 32.0 °F 100% 30.03 in 0.2 mi SW 11.5 mph - N/A Fog , Rain Light Rain
4:55 PM 32.0 °F 24.2 °F 32.7 °F 100% 30.03 in 0.2 mi SW 9.2 mph - N/A Fog , Rain Light Rain
5:25 PM 32.0 °F 22.5 °F 32.0 °F 100% 30.03 in 0.2 mi SSW 12.7 mph - N/A Fog , Rain Light Rain
5:55 PM 31.6 °F 23.1 °F 32.5 °F 100% 30.04 in 0.2 mi SSW 10.4 mph - N/A Rain Light Freezing Rain
6:55 PM 31.8 °F 23.9 °F 32.7 °F 100% 30.05 in 0.2 mi SSW 9.2 mph - N/A Fog , Rain Light Freezing Rain
7:55 PM 31.8 °F 23.3 °F 32.5 °F 100% 30.05 in 0.2 mi SSW 10.4 mph - N/A Fog , Rain Light Freezing Rain
8:55 PM 31.5 °F 24.2 °F 32.2 °F 100% 30.06 in 0.2 mi SW 8.1 mph - N/A Rain Light Freezing Rain
9:55 PM 31.8 °F 22.3 °F 32.5 °F 100% 30.06 in 0.2 mi South 12.7 mph - N/A   Light Freezing Rain
10:55 PM - - - N/A% 30.06 in 0.2 mi South 11.5 mph - N/A Fog , Rain Light Rain
11:55 PM - - - N/A% 30.07 in 0.2 mi SSW 9.2 mph - N/A Fog , Rain Light Rain